User: anonymous   Login
Location: Gradaro
(45.0833°N, 10.8833°E)
Time: 06:26:33
(UTC+00:00)
Language:

FENGYUN 1C DEB - Orbit

View from above orbital plane
View from above orbital plane
View from above satellite
View from above satellite

Ground track
Ground track

The orbit data is extracted from the following two-line orbital elements,

1 38516U 99025ETB 21170.85825063  .00000031  00000-0  25981-4 0  9999
2 38516  98.3706 185.0346 0112723 307.7497  51.3515 14.32151820614321
Epoch (UTC): 19 June 2021 20:35:52
Eccentricity: 0.0112723
inclination: 98.3706°
perigee height: 704 km
apogee height: 865 km
right ascension of ascending node: 185.0346°
argument of perigee: 307.7497°
revolutions per day: 14.32151820
mean anomaly at epoch: 51.3515°
orbit number at epoch: 61432

The dashed part of the orbit path shows where the satellite is in the earth's shadow,  

DLR